Regional Weather Roundup
Issued by NWS

Home | Current Version | Previous Version | Graphics & Text | Print | Product List | Glossary Off
Versions: 1 2 3 4 5 6 7 8 9 10 11 12 13 14 15 16 17 18 19 20 21 22 23 24 25 26 27 28 29 30 31 32 33 34 35 36 37 38 39 40 41 42 43 44 45 46 47 48 49 50

000
ASUS43 KDTX 180010
RWRMI
MICHIGAN HOURLY REGIONAL WEATHER ROUNDUP
NATIONAL WEATHER SERVICE DETROIT/PONTIAC MI
700 PM EST SAT FEB 17 2018

NOTE: "FAIR" INDICATES FEW OR NO CLOUDS BELOW 12,000 FEET WITH NO
SIGNIFICANT WEATHER AND/OR OBSTRUCTION TO VISIBILITY.

MIZ047>049-052>055-059>063-066>070-074>076-081>083-180100-
SOUTHEAST LOWER MICHIGAN

CITY           SKY/WX    TMP DP  RH WIND       PRES   REMARKS
ADRIAN         CLOUDY    31  26  82 SW5       29.98F WCI  26
6HR MIN TEMP:  30; 6HR MAX TEMP:  32;

ALMA           CLOUDY    32  22  68 SW14G21   29.95R WCI  22
6HR MIN TEMP:  29; 6HR MAX TEMP:  32;

ANN ARBOR      CLOUDY    31  24  75 SE5       29.97S WCI  26
BAD AXE        LGT SNOW  30  21  68 SW13      29.94F WCI  20
6HR MIN TEMP:  30; 6HR MAX TEMP:  32;

CARO           CLOUDY    31  22  67 CALM      29.93F
DETROIT CITY   CLOUDY    31  24  75 S10       29.99F WCI  22
6HR MIN TEMP:  31; 6HR MAX TEMP:  33;

DETROIT        CLOUDY    32  25  75 S8        29.99F WCI  25
6HR MIN TEMP:  31; 6HR MAX TEMP:  34;

FLINT          CLOUDY    32  22  66 S10       29.95S WCI  24
6HR MIN TEMP:  30; 6HR MAX TEMP:  33;

GROSSE ILE     CLOUDY    32  29  88 SW14      29.98F WCI  22
6HR MIN TEMP:  31; 6HR MAX TEMP:  32;

HILLSDALE      CLOUDY    32  25  74 S3        29.95R
HOWELL         CLOUDY    32  23  68 W5        29.95S WCI  27
6HR MIN TEMP:  31; 6HR MAX TEMP:  33;


CITY           SKY/WX    TMP DP  RH WIND       PRES   REMARKS
JACKSON        CLOUDY    32  24  72 S5        29.95S WCI  27
6HR MIN TEMP:  31; 6HR MAX TEMP:  34;

LAMBERTVILLE   CLOUDY    32  26  79 SE3       29.98F
6HR MIN TEMP:  32; 6HR MAX TEMP:  33;

LANSING        LGT SNOW  29  25  85 SW9       29.96R FOG     WCI  20
6HR MIN TEMP:  29; 6HR MAX TEMP:  34; 6HR PCP:  0.01;

LAPEER         CLOUDY    31  22  70 S5        29.95S WCI  26
6HR MIN TEMP:  31; 6HR MAX TEMP:  33;

MASON          CLOUDY    33  20  58 SW3       29.96R
6HR MIN TEMP:  32; 6HR MAX TEMP:  35;

MONROE         CLOUDY    32  26  76 S7        29.99F WCI  26
6HR MIN TEMP:  32; 6HR MAX TEMP:  34;

MT. CLEMENS    CLOUDY    31  29  94 S10       29.96F WCI  22
6HR MIN TEMP:  31; 6HR MAX TEMP:  34;

PONTIAC        CLOUDY    32  22  66 S8        29.94S WCI  25
6HR MIN TEMP:  30; 6HR MAX TEMP:  32;

PORT HOPE        N/A     30  16  56 SW5       29.91F WCI  25
6HR MIN TEMP:  30; 6HR MAX TEMP:  32;

PORT HURON     MOCLDY    30  23  74 S6        29.97F WCI  24
TRI CITIES     CLOUDY    30  20  66 SW3       29.95S
6HR MIN TEMP:  30; 6HR MAX TEMP:  32; 6HR PCP: TRACE;

MIDLAND        CLOUDY    31  17  55 W3        29.94R
6HR MIN TEMP:  30; 6HR MAX TEMP:  32;

TROY           CLOUDY    33  24  69 SW7       30.00R WCI  27
SAGINAW HB     CLOUDY    32  27  80 SW5       29.94S WCI  27
$$
MIZ043>046-050>051-056>058-064>065-071>073-077>080-180100-
SOUTHWEST LOWER MICHIGAN

CITY           SKY/WX    TMP DP  RH WIND       PRES   REMARKS
BATTLE CREEK   CLOUDY    32  24  72 S7        29.96R WCI  26
6HR MIN TEMP:  30; 6HR MAX TEMP:  33;

BENTON HARBOR  SNOW      32  30  92 CALM      29.97R VSB 1/2
6HR MIN TEMP:  32; 6HR MAX TEMP:  35; 6HR PCP:  0.02;

BIG RAPIDS     CLOUDY    29  22  74 SW5       29.92R WCI  24
6HR MIN TEMP:  29; 6HR MAX TEMP:  31;

COLDWATER      LGT SNOW  32  27  81 CALM      29.96S
6HR MIN TEMP:  32; 6HR MAX TEMP:  34;

FREMONT        LGT SNOW  29  25  84 SW9       29.94R WCI  21
6HR MIN TEMP:  29; 6HR MAX TEMP:  32;

HOLLAND        CLOUDY    32  25  75 SW7       29.96S WCI  26
6HR MIN TEMP:  31; 6HR MAX TEMP:  34; 6HR PCP: TRACE;

GRAND RAPIDS   CLOUDY    30  25  81 S5        29.94F WCI  25
6HR MIN TEMP:  30; 6HR MAX TEMP:  35; 6HR PCP: TRACE;

IONIA          LGT SNOW  29  28  94 SW6       29.95R WCI  23
6HR MIN TEMP:  29; 6HR MAX TEMP:  34;

KALAMAZOO      CLOUDY    33  23  66 S3        29.96S
6HR MIN TEMP:  30; 6HR MAX TEMP:  34;

LUDINGTON      LGT SNOW  28  28  96 W6        29.93S WCI  22
6HR MIN TEMP:  28; 6HR MAX TEMP:  31;

MARSHALL       CLOUDY    32  22  67 CALM      29.95S
6HR MIN TEMP:  31; 6HR MAX TEMP:  33;

MOUNT PLEASANT CLOUDY    32  12  44 SW5       29.93R WCI  27
6HR MIN TEMP:  31; 6HR MAX TEMP:  33;

MUSKEGON       SNOW      30  26  85 SW8       29.97R VSB 1/2 WCI  22
6HR MIN TEMP:  30; 6HR MAX TEMP:  32; 6HR PCP:  0.06;

SOUTH HAVEN    LGT SNOW  32  28  84 CALM      29.97R
$$
MIZ016>042-180100-
NORTHERN LOWER MICHIGAN

CITY           SKY/WX    TMP DP  RH WIND       PRES   REMARKS
ALPENA         CLOUDY    30  20  66 SW9       29.86S WCI  22
6HR MIN TEMP:  30; 6HR MAX TEMP:  34;

BEAVER ISLAND  CLOUDY    28  25  87 SW13G24   29.83R WCI  18
6HR MIN TEMP:  27; 6HR MAX TEMP:  32;

BELLAIRE       FLURRIES  29  24  81 SW10G22   29.89R WCI  20
6HR MIN TEMP:  29; 6HR MAX TEMP:  33;

CADILLAC       LGT SNOW  26  22  85 SW10      29.88R WCI  15
CHARLEVOIX     LGT SNOW  28  27  97 SW13      29.88S WCI  17
6HR MIN TEMP:  28; 6HR MAX TEMP:  33;

FRANKFORT      LGT SNOW  30  29  94 SW8G21    29.90R WCI  22
GAYLORD        LGT SNOW  25  24  96 W8        29.83R FOG     WCI  16
6HR MIN TEMP:  25; 6HR MAX TEMP:  30; 6HR PCP: TRACE;

GRAYLING       CLOUDY    29  15  56 W10G18    29.85R WCI  19
6HR MIN TEMP:  29; 6HR MAX TEMP:  30;

HARBOR SPRINGS LGT SNOW  27  27  99 SW5       29.85R WCI  22
HOUGHTON LAKE  LGT SNOW  26  20  77 S13       29.89R WCI  15
6HR MIN TEMP:  26; 6HR MAX TEMP:  30; 6HR PCP: TRACE;

MANISTEE       LGT SNOW  28  25  88 SW5       29.92S FOG     WCI  23
OSCODA         FLURRIES  28  20  70 SW15G22   29.90S WCI  17
6HR MIN TEMP:  28; 6HR MAX TEMP:  32;

PELLSTON       LGT SNOW  28  25  88 VRB6      29.83S FOG     WCI  22
6HR MIN TEMP:  28; 6HR MAX TEMP:  33; 6HR PCP: TRACE;

ROGERS CITY    CLOUDY    31  19  59 SW10      29.85S WCI  22
TRAVERSE CITY  LGT SNOW  29  24  82 S10G16    29.88R WCI  20
6HR MIN TEMP:  29; 6HR MAX TEMP:  35; 6HR PCP: TRACE;

$$
MIZ007>008-015-180100-
EASTERN UPPER MICHIGAN

CITY           SKY/WX    TMP DP  RH WIND       PRES   REMARKS
KINROSS        CLOUDY    26  23  88 SW8       29.80S WCI  18
6HR MIN TEMP:  26; 6HR MAX TEMP:  31; 6HR PCP: TRACE;

MACKINAC ISLAN CLOUDY    27  25  94 SW13G23   29.82S FOG     WCI  16
6HR MIN TEMP:  27; 6HR MAX TEMP:  31;

NEWBERRY       FAIR      23  21  93 SW12      29.79R WCI  11
6HR MIN TEMP:  23; 6HR MAX TEMP:  26;

S. S. MARIE    CLOUDY    29  22  75 SW9       29.80R WCI  20
6HR MIN TEMP:  29; 6HR MAX TEMP:  32;

MUNISING         N/A     26  17  68 NW12      29.81R WCI  16
6HR MIN TEMP:  26; 6HR MAX TEMP:  30;

$$
MIZ004>006-011>014-085-180100-
CENTRAL UPPER MICHIGAN

CITY           SKY/WX    TMP DP  RH WIND       PRES   REMARKS
MANISTIQUE     MOCLDY    24  22  94 SW9       29.81R WCI  14
6HR MIN TEMP:  24; 6HR MAX TEMP:  25;

ESCANABA       FAIR      25  20  81 SW7       29.83R WCI  17
6HR MIN TEMP:  25; 6HR MAX TEMP:  28; 6HR PCP: TRACE;

MENOMINEE      FAIR      25  20  81 W9        29.86R WCI  15
6HR MIN TEMP:  25; 6HR MAX TEMP:  26; 6HR PCP: TRACE;

SAWYER-GWINN   CLOUDY    27  19  74 E7        29.77R WCI  19
$$
MIZ001>003-009>011-084-180100-
WESTERN UPPER MICHIGAN

CITY           SKY/WX    TMP DP  RH WIND       PRES   REMARKS
IRON MOUNTAIN  FAIR      27  17  66 SW7       29.78R WCI  19
6HR MIN TEMP:  26; 6HR MAX TEMP:  29;

HOUGHTON       FAIR      24  12  60 W15       29.75R WCI  11
6HR MIN TEMP:  24; 6HR MAX TEMP:  26;

COPPER HARBOR    N/A     26  15  63 VRB7G16   29.76R WCI  18
6HR MIN TEMP:  25; 6HR MAX TEMP:  29;

IRONWOOD       FAIR      26  12  55 W12       29.82R WCI  16
6HR MIN TEMP:  26; 6HR MAX TEMP:  32;

$$

ABBREVIATIONS USED IN REMARKS
   TC - TEMPERATURE IN CELSIUS
  WCI - WIND CHILL INDEX
   HX - HEAT INDEX
  VSB - VISIBILITY




USA.gov is the U.S. government's official web portal to all federal, state and local government web resources and services.